Airport METAR Information

LTBA 172220Z 01008KT CAVOK 22/17 Q1009 NOSIG

VATSIM Livefeed

Card image cap

ATC Bookings

No position booked

Card image cap

Active ATC

No controllers online

Blog

Read our latest news and get to know us better.